sat.trackr.live / text

‹ back to catalog

STARLINK-11568 [DTC]

NORAD 63307 · 2025-057A

PAYLOAD ACTIVE UNKNOWN

§ Identity

Operator
Country
US
Launch date
2025-03-18
Launch site
AFETR
Launch vehicle
Mass (kg)
RCS (m²)

Purposes: comms

External: N2YO · Heavens-Above · Gunter

§ Orbital elements

Epoch: 2026-09-20T18:40:11.424000Z

Period
91.67 min
Inclination
42.9999°
Eccentricity
0.0001743
Mean motion
15.70883007 rev/d
Perigee alt
355.2 km
Apogee alt
357.5 km
Semi-major
6,734.5 km
B*
1.0617e-3
RAAN
168.2727°
Arg perigee
255.5207°
Mean anomaly
104.5467°
Rev number
8,786

§ Raw data

STARLINK-11568 [DTC]1 63307U 25057A   26263.77791000  .00138324  00000+0  10617-2 0  99952 63307  42.9999 168.2727 0001743 255.5207 104.5467 15.70883007 87862

JSON: /api/v1/satellites/63307 · /tle

For live sub-satellite position, see the globe view (requires WebGL).

§ Visibility from observer

Set your observer location to see the next 7 days of passes ≥ 10°. The values pass through the URL so the page stays shareable.

No JS? Fill the form by hand. The geolocation button needs JavaScript.